   A. R. Gibbs, A. D. Grauer, H. Gröller, J. A. Johnson, R. A. Kowalski, S.
   M. Larson, G. J. Leonard, D. Rankin, R. L. Seaman, F. C. Shelly. 1.5-m
   reflector + 10K CCD.
(H06) RAS Observatory, Mayhill  (N32.903325 W105.528700)  US/New
   Mexico.  Observers E. Guido, G. Sostero, V. Gonano, L. Donato.
(I52) Steward Observatory, Mt. Lemmon Station  (N32.442547 W110.788920)
   US/Arizona.  Observers T. A. Pruyne, B. M. Africano, E. J. Christensen, G.
   A. Farneth, D. C. Fuls, A. R. Gibbs, A. D. Grauer, H. Gröller, J. A.
   Johnson, R. A. Kowalski, S. M. Larson, G. J. Leonard, D. Rankin, R. L.
   Seaman, F. C. Shelly. 1.0-m reflector + CCD.
(K61) Rokycany Observatory  (N49.751403 E13.602600)  Czech Republic.
   Observer M. Adamovsky. 0.51-m f/6.8 reflector + CCD.
(L01) Višnjan Observatory, Tičan  (N45.290900 E13.749300)  Croatia.
   Observers K. Korlević, E. Pettarin. Measurer E. Pettarin. 1.0-m f/2.9
   reflector + CCD.
(L07) Osservatorio Salvatore di Giacomo, Agerola  (N40.623927 E14.564060)
   Italy.
(N51) GROWTH India Telescope, IAO, Hanle  (N32.779244 E78.964610)  India.
(Z08) Telescope Live, Oria  (N37.501038 W2.408610)  Spain.

Orbital elements:  C3D5RV2
   Perihelion 2020 Nov 23.609163 +/- 0.0208 TT = 14:37:11 (JD 2459177.109163)
Epoch 2020 Oct 20.0 TT = JDT 2459142.5   Earth MOID: 0.8873   Ju: 0.0589
M 355.00440714 +/- 0.0041           (J2000 ecliptic)          AutoNEOCP
n   0.14434307 +/- 3.54e-5          Peri.  176.65236 +/- 0.010
a   3.59919537 +/- 0.000589         Node   242.57116 +/- 0.0011
e   0.4790823 +/- 6.41e-5           Incl.   15.46065 +/- 0.00032
P   6.83                   H 17.7   G  0.15   U  5.9  
q 1.87488427 +/- 7.69e-5    Q 5.32350647 +/- 0.0011
From 107 observations 2020 Aug. 28-Oct. 20; mean residual 0".52
Residuals in arcseconds: 
200828 G96  .66+  .84+    201008 L01  .79+  .73+    201013 711  .32+  .14+    
200828 G96  .50-  .03-    201008 L01  .43-  .35+    201014 711  .35-  .38+    
200828 G96  .23-  .66-    201008 L01  .11+  .08-    201014 711  .47-  .84+    
200918 G96  .96-  .86+    201008 L01  .35-  .16-    201014 711  .16+  .49+    
200918 G96  .32+  .46-    201008 I52  .11-  .41+    201014 711  .10+  .32+    
200918 G96  .17+  .09+    201008 I52  .27+  .24+    201017 587  .37+  .19-    
200918 G96  .31-  .31-    201008 I52  .07+  .19-    201017 587  .14+  .58-    
200922 F52  .44+  .40-    201008 I52  .56-  .37+    201017 587  .30+  .49-    
200922 F52  .01-  .11+    201009 G96  .64-  .07+    201017 587  .33+  .29-    
200922 F52  .74+  .16-    201009 G96  .32-  .25-    201018 204  .20-  .03+    
200929 G96  1.2-  .42-    201009 G96  .37-  .06-    201018 204  .37-  .25+    
200929 G96  .03-  .10+    201009 G96  .69-  .13-    201018 A77  .35-  .20-    
200929 G96  .03-  .57-    201009 I52  .66-  .06-    201018 A77  .02-  .04+    
200929 G96  .22+  .14-    201009 I52  .21+  .17+    201018 A77  .17+  .51-    
200929 G96  .04+  .25-    201009 I52  .17-  .11+    201018 I52  1.1-  .02+    
200929 G96  .21-  .14+    201009 I52  .19+  .52-    201018 I52  .83+  .02+    
200929 G96  .63-  .18-    201009 N51  .15-  .34-    201018 I52  1.1+  .29-    
200929 G96  .00   .48-    201009 N51  .16+  .11+    201019 I52  .01+  .00     
200929 F52  .73+  .67-    201009 N51  .28+  .02-    201019 I52  .02-  .00     
200929 F52  .25+  .09+    201010 Z08  .06-  .19+    201019 I52  .30+  .40-    
200929 I52  .04+  .21-    201010 Z08  .21+  .05-    201019 K61  1.1+  .24+    
200929 I52  .34+  .18+    201010 L07  .03+  .23+    201019 K61  .85+  .50+    
200929 I52  .79+  .47+    201010 L07  .77+  .02+    201019 K61  .27-  .00     
200929 I52  .14-  .09-    201011 C95  1.9-  .35-    201020 858  .20+  .42+    
200929 B49  .68+  .11+    201011 C95  2.5+  .02+    201020 858  .11-  .32+    
200929 B49  .96+  .04+    201011 H06  .45-  .39+    201020 858  .56-  .10-    
200929 B49  .77-  1.5+    201011 H06  .19-  .02+    201020 658  .13-  .13-    
200929 B49  .14-  .47+    201011 H06  .05-  .15+    201020 658  .23-  .13-    
200930 G96  2.1-  .87-    201011 F52  .53+  .06-    201020 658  .33-  .07+    
200930 G96  .03-  .13-    201011 F52  .87+  .48-    201020 658  .43-  .08+    
200930 G96  .60-  .45+    201011 F52  .15+  .58+    201020 658  .53-  .08+    
200930 G96  1.3-  .68-    201012 Z08  .53-  .14+    201020 I52  .17+  .28+    
201007 I52  .17-  .78-    201012 Z08  .75-  .36-    201020 I52  .71-  .60-    
201007 I52  .29+  1.3-    201013 711  .08-  1.1+    201020 I52  .33-  .30-    
201007 I52  .03-  .49+    201013 711  .22-  .15+    201020 I52  .33+  .36-    
201007 I52  .21+  .80-    201013 711  .31+  .10+    

Ephemerides (geocentric):
Date (UTC) HH   RA              Dec         delta   r     elong  mag " sig PA
---- -- -- --  -------------   -----------  ------ ------ -----  --- ---- ---
2020 10 21 04  03 47 00.778   +29 39 37.88  0.9904 1.8972 145.6 20.0 .094  21
2020 10 21 05  03 47 00.976   +29 39 12.76  0.9901 1.8972 145.7 20.0 .095  21
2020 10 21 06  03 47 01.170   +29 38 47.60  .98983 1.8971 145.7 20.0 .096  22
2020 10 21 07  03 47 01.360   +29 38 22.41  .98956 1.8971 145.8 20.0 .097  22
2020 10 21 08  03 47 01.547   +29 37 57.18  .98929 1.8970 145.8 20.0 .098  22
2020 10 21 09  03 47 01.731   +29 37 31.91  .98902 1.8969 145.8 20.0 .099  22
2020 10 21 10  03 47 01.911   +29 37 06.60  .98875 1.8969 145.9 20.0 .100  22
2020 10 21 11  03 47 02.088   +29 36 41.26  .98848 1.8968 145.9 20.0 .101  22
2020 10 21 12  03 47 02.261   +29 36 15.88  .98821 1.8968 146.0 20.0 .102  22
2020 10 21 13  03 47 02.431   +29 35 50.46  .98794 1.8967 146.0 20.0 .103  22
2020 10 21 14  03 47 02.597   +29 35 25.00  .98767 1.8967 146.1 20.0 .104  22
2020 10 21 15  03 47 02.760   +29 34 59.51  .98740 1.8966 146.1 20.0 .105  22
2020 10 21 16  03 47 02.920   +29 34 33.98  .98714 1.8966 146.1 20.0 .106  22
2020 10 21 17  03 47 03.076   +29 34 08.41  .98687 1.8965 146.2 20.0 .107  22
2020 10 21 18  03 47 03.229   +29 33 42.80  .98660 1.8965 146.2 20.0 .108  22
2020 10 21 19  03 47 03.378   +29 33 17.16  .98633 1.8964 146.3 20.0 .109  22
2020 10 21 20  03 47 03.524   +29 32 51.48  .98607 1.8963 146.3 20.0 .110  22
2020 10 21 21  03 47 03.666   +29 32 25.76  .98580 1.8963 146.4 20.0 .111  22
2020 10 21 22  03 47 03.805   +29 32 00.01  .98553 1.8962 146.4 20.0 .112  22
2020 10 21 23  03 47 03.941   +29 31 34.22  .98527 1.8962 146.4 20.0 .113  22
2020 10 22 00  03 47 04.073   +29 31 08.39  .98500 1.8961 146.5 20.0 .114  22
2020 10 22 01  03 47 04.201   +29 30 42.52  .98474 1.8961 146.5 20.0 .115  22
2020 10 22 02  03 47 04.327   +29 30 16.61  .98447 1.8960 146.6 20.0 .116  22
2020 10 22 03  03 47 04.448   +29 29 50.67  .98421 1.8960 146.6 20.0 .117  22
2020 10 22 04  03 47 04.567   +29 29 24.69  .98394 1.8959 146.7 20.0 .118  22
2020 10 22 05  03 47 04.682   +29 28 58.68  .98368 1.8959 146.7 20.0 .119  22
2020 10 22 06  03 47 04.794   +29 28 32.62  .98341 1.8958 146.7 20.0 .120  22
2020 10 22 07  03 47 04.902   +29 28 06.53  .98315 1.8958 146.8 20.0 .121  22
2020 10 22 08  03 47 05.007   +29 27 40.41  .98289 1.8957 146.8 20.0 .122  22
2020 10 22 09  03 47 05.108   +29 27 14.24  .98262 1.8956 146.9 20.0 .123  22
2020 10 22 10  03 47 05.206   +29 26 48.04  .98236 1.8956 146.9 20.0 .125  22
2020 10 22 11  03 47 05.301   +29 26 21.80  .98210 1.8955 147.0 20.0 .126  22
2020 10 22 12  03 47 05.392   +29 25 55.52  .98184 1.8955 147.0 20.0 .127  22
2020 10 22 13  03 47 05.480   +29 25 29.21  .98158 1.8954 147.0 20.0 .128  22
2020 10 22 14  03 47 05.565   +29 25 02.85  .98131 1.8954 147.1 20.0 .129  22
2020 10 22 15  03 47 05.646   +29 24 36.46  .98105 1.8953 147.1 20.0 .130  22
2020 10 22 16  03 47 05.724   +29 24 10.04  .98079 1.8953 147.2 20.0 .131  22
2020 10 22 17  03 47 05.798   +29 23 43.57  .98053 1.8952 147.2 20.0 .132  22
2020 10 22 18  03 47 05.869   +29 23 17.07  .98027 1.8952 147.3 20.0 .133  22
2020 10 22 19  03 47 05.937   +29 22 50.54  .98001 1.8951 147.3 20.0 .134  22
2020 10 22 20  03 47 06.001   +29 22 23.96  .97975 1.8951 147.3 20.0 .136  22
2020 10 22 21  03 47 06.062   +29 21 57.35  .97949 1.8950 147.4 20.0 .137  23
2020 10 22 22  03 47 06.120   +29 21 30.70  .97924 1.8950 147.4 20.0 .138  23
2020 10 22 23  03 47 06.174   +29 21 04.01  .97898 1.8949 147.5 20.0 .139  23
2020 10 23 00  03 47 06.225   +29 20 37.29  .97872 1.8949 147.5 20.0 .140  23
2020 10 23 01  03 47 06.272   +29 20 10.52  .97846 1.8948 147.6 20.0 .141  23
2020 10 23 02  03 47 06.316   +29 19 43.73  .97820 1.8948 147.6 20.0 .142  23
2020 10 23 03  03 47 06.357   +29 19 16.89  .97795 1.8947 147.6 20.0 .143  23